Location: Asheville, NC
(35.6000°N, 82.5500°W)
Time: 01:00:11
(UTC-04:00)

XW-2C - Pass Details

Date: 06 January 2018
Orbit: 510 x 531 km, 97.5° (Epoch: 23 June)

Event Time Altitude Azimuth Distance (km) Brightness Sun altitude
Rises 18:18:49 0° 185° (S) 2,650 ? -9.5°
Reaches altitude 10° 18:21:02 10° 193° (SSW) 1,768 ? -9.9°
Maximum altitude 18:24:35 37° 262° (W) 842 ? -10.6°
Drops below altitude 10° 18:28:10 10° 330° (NNW) 1,785 ? -11.3°
Sets 18:30:24 0° 339° (NNW) 2,680 ? -11.7°
